Tracking 19644 objects as of 23-Apr-2019
HD Live streaming from Space Station
objects crossing your sky now

BEIDOU 1B

Track BEIDOU 1B now!
BEIDOU 1B is classified as:


NORAD ID: 26643
Int'l Code: 2000-082A
Perigee: 35,720.7 km
Apogee: 36,443.4 km
Inclination: 8.9 °
Period: 1,450.9 minutes
Semi major axis: 42453 km
RCS: 0.1238 m2 (medium)
Launch date: December 20, 2000
Source: People's Republic of China (PRC)
Launch site: Xichang Space Center, China (XSC)

Space-bsaed navigation and positioning system to improve accuracy of weapons and situational awareness of military forces.
aabbcc
Your satellite tracking list
Your tracking list is empty




NASA's NSSDC Master Catalog

Two Line Element Set (TLE):
1 26643U 00082A   19113.43299041  .00000046  00000-0  00000+0 0  9997
2 26643   8.9380  43.8114 0085111  21.8347 158.1418  0.99252022 66925
Source of the keplerian elements: AFSPC